Back to catalog

FLOCK 4BE 20

AliveScienceSSO
NORAD 60489·PAYLOAD·🇺🇸 United States

Launched Aug 16, 2024 from Vandenberg Space Force Base

Loading…

Next Passes (next 24 hours)

TLE

FreshSource: Space-Track

Epoch: Sep 14, 2026, 10:58 UTC

1 60489U 24149X   26257.45740958  .00051558  00000-0  11394-2 0  9995
2 60489  97.3632 340.0951 0003549 267.2694  92.8148 15.43673777115951

Track FLOCK 4BE 20 in real time with AllMySat

Download on the App Store